SCP
-0 -0 -0 -0 -0 -0 0 -0 -0 0 0 -0 -0 -0 0 0 0 0 0 -0 -0 -0 -0 -0 -0 -0 -0 -0 -0 -0 -0 -0 0 -0 -0 -0 0 0 0 0 0 0 0 0
0 -0 -0 -0 -0 0 0 -0 0 0 0 -0 -0 -0 -0 0 -0 -0 -0 0 -0 -0 -0 -0 -0 -0 -0 -0 -0 -0 -0 -0 -0 0 -0 0 0 0 0 0 0 0 0 0
-0 0 -0 -0 -0 -0 -0 0 -0 0 -0 -0 -0 -0 0 0 0 0 0 -0 -0 -0 -0 -0 -0 -0 -0 -0 -0 -0 -0 -0 0 -0 -0 0 0 0 0 0 0 0 0 0
-0 -0 0 0 -0 -0 0 -0 -0 0 -0 0 0 -0 0 0 0 0 0 -0 -0 -0 -0 -0 -0 -0 -0 -0 -0 -0 -0 -0 -0 0 -0 -0 0 0 0 0 0 0 -0 0
0 0 -0 -0 0 0 -0 -0 -0 -0 -0 -0 -0 0 0 0 0 0 0 0 0 -0 -0 -0 -0 -0 -0 -0 -0 -0 -0 -0 -0 0 0 0 0 -0 -0 0 0 0 0 0
-0 0 0 0 0 -0 0 0 0 0 0 0 -0 0 0 0 0 0 0 0 0 0 -0 -0 -0 -0 -0 -0 -0 -0 -0 -0 -0 -0 0 0 0 -0 -0 -0 0 0 0 0
0 0 0 0 0 0 0 0 0 0 0 -0 0 0 -0 0 0 0 0 0 0 0 0 -0 -0 -0 -0 -0 -0 -0 -0 -0 -0 -0 -0 0 0 0 -0 -0 -0 0 0 0
0 0 0 0 0 0 0 0 0 0 0 0 0 0 0 0 0 0 0 0 0 0 0 -0 -0 -0 -0 -0 -0 -0 -0 -0 -0 -0 -0 0 0 -0 -0 -0 -0 0 0 0
0 0 0 0 0 0 0 0 -0 0 0 0 0 0 0 -0 0 0 0 0 0 0 0 -0 -0 -0 -0 -0 -0 -0 -0 -0 -0 -0 -0 -0 -0 0 -0 -0 -0 -0 0 0
0 0 0 0 0 0 0 0 0 0 0 0 0 0 0 0 0 0 0 0 0 0 0 0 -0 -0 -0 -0 -0 -0 -0 -0 -0 -0 -0 -0 -0 -0 -0 0 0 0 0 0
-0 0 0 0 0 0 0 0 0 0 0 0 0 0 0 0 -0 0 0 0 0 0 0 0 0 0 0 -0 -0 -0 -0 -0 -0 -0 -0 -0 -0 -0 -0 0 0 0 -0 0
0 0 0 0 0 0 0 0 -0 0 0 0 0 0 0 0 0 0 0 0 0 0 0 0 0 0 0 0 -0 -0 -0 0 0 -0 -0 -0 -0 0 -0 -0 -0 0 0 -0
0 0 0 0 0 0 0 0 0 0 0 0 0 0 0 0 -0 -0 0 0 0 0 0 0 -0 -0 0 0 -0 -0 -0 -0 -0 0 -0 0 0 0 0 0 0 -0 -0 0
0 0 0 0 0 0 0 0 0 0 0 0 0 -0 0 0 0 0 0 0 0 0 0 0 0 -0 -0 0 -0 -0 -0 -0 -0 -0 0 0 0 0 0 0 0 0 0 0
0 0 0 0 0 0 0 0 0 0 0 0 0 0 0 0 0 0 0 0 0 0 0 0 0 0 0 0 0 0 0 0 0 0 0 0 0 0 0 0 0 0 0 0
0 0 0 0 0 0 0 0 0 0 0 0 0 0 0 0 0 0 0 0 0 0 0 0 0 0 -0 -0 0 0 0 0 0 0 0 0 0 0 0 0 1 1 1 1
0 0 0 0 0 0 0 0 0 0 0 0 0 0 0 0 0 0 0 0 0 0 0 0 0 0 0 0 0 0 0 0 0 1 1 0 1 1 0 1 1 1 1 1
0 0 0 0 0 0 0 0 0 0 0 0 0 0 0 0 0 0 0 0 0 0 0 1 1 1 1 0 1 1 0 1 1 1 1 1 1 2 1 2 2 2 1 1
0 0 0 0 0 0 0 0 0 0 0 0 0 0 0 0 0 0 0 0 0 0 0 1 1 1 1 1 1 1 1 1 1 1 1 1 3 2 2 2 2 1 0 0
0 0 0 0 0 0 0 0 0 0 0 0 0 0 1 0 0 1 1 1 0 1 1 1 1 1 2 2 1 1 1 1 2 2 2 4 3 2 2 1 0 0 0 0
0 0 0 0 0 0 0 0 0 0 0 0 0 1 1 1 2 1 1 1 1 0 0 1 1 2 3 2 1 1 0 0 0 0 0 0 0 0 0 0 0 0 0 0
0 0 0 0 0 0 0 0 0 0 0 0 0 0 1 1 1 1 1 1 1 0 0 0 1 2 1 1 1 0 0 0 0 0 0 0 0 0 0 0 0 0 0 0
0 0 0 0 0 0 0 0 0 0 0 0 0 0 0 0 1 1 2 2 1 1 -0 1 2 1 1 1 1 0 0 0 0 0 0 0 0 0 0 0 0 0 0 0
0 0 0 0 0 0 0 0 0 0 0 0 0 0 0 0 0 1 1 3 2 1 0 1 2 1 1 1 0 0 0 0 0 0 0 0 0 0 0 0 0 0 0 0
0 0 0 0 0 0 0 0 0 0 0 0 0 0 0 0 0 0 1 2 2 1 0 1 1 1 1 0 0 0 0 0 0 0 0 0 0 0 0 0 0 0 0 0
0 0 0 0 0 0 0 0 0 0 0 0 0 0 0 0 0 0 0 1 1 0 0 1 1 1 0 0 0 0 0 0 0 0 0 0 0 0 0 0 0 0 0 0
Wind_Speed_500mb
33 23 32 30 28 20 13 19 21 16 11 14 17 23 18 15 31 32 36 39 40 41 38 37 37 36 34 33 33 33 32 35 37 35 39 36 35 42 31 29 30 21 22 23
18 36 33 21 11 22 21 25 23 8 1 17 29 33 17 18 30 37 40 41 46 43 41 43 42 41 40 38 36 35 35 37 39 36 38 38 38 44 31 34 33 25 24 24
34 2 31 19 28 28 29 30 25 22 22 29 20 28 9 9 20 29 38 41 47 50 50 48 49 47 43 43 43 39 37 40 45 41 44 47 44 40 35 35 38 28 24 23
24 21 8 29 40 28 30 24 24 24 18 18 2 21 13 8 12 21 33 47 52 55 54 53 50 49 49 47 42 41 38 39 49 52 52 40 50 40 39 31 33 25 25 24
14 19 29 31 24 24 31 26 22 20 22 20 29 14 18 13 18 18 27 40 46 53 59 60 57 55 52 48 47 45 42 39 45 56 50 55 44 35 31 31 28 29 25 27
30 10 10 27 31 33 19 20 20 18 22 25 30 20 17 4 7 12 21 4 27 47 58 61 60 55 50 49 47 48 50 47 48 54 61 56 51 41 35 35 31 27 23 25
29 32 31 22 17 14 22 24 17 21 21 25 3 13 24 27 25 22 20 24 17 29 54 63 66 61 55 54 53 51 53 56 53 54 59 59 57 58 42 34 33 30 30 30
17 24 35 26 36 24 34 31 23 20 21 19 14 11 11 13 28 28 23 22 18 20 45 62 65 64 62 58 56 54 54 59 59 56 55 56 56 54 56 44 39 34 35 33
12 13 10 10 25 32 28 23 35 38 28 21 27 32 18 23 17 15 22 11 9 15 32 55 63 64 62 60 59 59 57 59 60 59 55 54 54 56 50 50 45 43 37 32
8 16 20 26 17 20 32 16 21 22 31 33 23 19 16 15 12 12 7 7 8 10 28 46 60 63 59 57 59 62 58 60 60 58 58 57 56 55 56 50 52 42 41 41
32 22 12 14 26 24 16 26 27 27 18 20 23 18 15 9 16 17 14 12 13 12 29 43 54 58 58 56 55 61 59 55 57 57 55 55 53 50 51 52 50 48 47 46
37 18 25 35 26 13 27 29 39 25 35 24 21 25 24 13 21 23 23 16 9 11 30 41 51 55 56 55 56 60 60 58 59 58 59 57 53 48 45 50 51 51 50 46
18 19 23 30 25 26 23 32 29 28 30 36 28 22 7 10 19 25 22 20 13 10 31 39 49 56 59 58 57 59 61 62 61 65 62 54 54 52 49 45 45 46 47 48
10 28 22 26 15 11 10 17 22 29 31 31 34 40 30 28 23 20 11 17 13 15 33 39 43 51 52 51 53 55 55 56 61 63 60 57 59 53 47 44 42 44 45 43
13 26 27 29 37 30 27 30 30 30 28 34 40 38 29 25 23 21 8 11 9 18 28 37 43 45 47 50 48 50 50 52 55 58 55 62 59 55 52 51 45 38 37 38
19 27 25 30 33 36 42 37 38 36 36 36 34 41 33 32 14 25 23 14 13 17 24 29 36 40 44 46 48 47 51 51 53 51 55 48 58 58 55 52 51 50 42 39
21 21 21 33 30 31 40 34 41 45 41 33 35 34 27 20 19 21 25 21 15 11 16 22 27 31 33 37 39 42 43 42 45 48 53 55 59 58 53 46 53 52 37 38
20 22 23 28 30 44 29 38 17 26 31 34 34 30 32 17 27 27 24 25 20 10 13 19 21 23 26 29 32 32 34 38 42 49 52 50 51 54 48 51 50 44 44 42
29 25 26 29 32 35 30 10 20 25 29 11 14 22 25 26 34 6 19 26 21 9 11 18 21 24 27 28 31 34 33 34 36 44 45 44 37 34 42 54 57 51 38 36
34 30 25 29 37 44 29 27 29 24 34 12 9 11 16 23 22 5 31 29 24 9 9 20 26 27 26 27 30 31 32 29 31 30 37 40 37 47 38 46 46 39 38 34
21 25 34 33 36 42 29 4 7 26 11 8 10 13 18 13 25 40 35 29 21 8 11 22 27 29 31 33 33 34 36 43 47 53 51 58 58 60 51 35 41 38 32 26
31 28 28 29 38 46 9 11 26 17 16 14 15 16 21 24 27 28 29 28 20 5 17 23 27 29 32 32 31 29 26 25 30 39 39 47 48 56 55 38 32 28 20 11
27 30 24 23 14 11 9 4 10 21 17 15 19 23 24 27 27 30 30 26 16 6 19 27 26 37 37 32 30 32 33 29 28 36 36 37 38 31 35 28 21 16 12 4
17 18 15 26 26 35 21 20 23 7 10 19 26 27 30 31 30 29 28 25 17 6 24 30 37 42 44 37 42 40 45 41 38 47 42 27 15 24 26 24 13 15 13 9
24 15 19 30 35 41 37 32 11 27 34 31 26 29 29 31 28 30 30 26 18 12 29 34 41 44 48 42 47 60 60 56 56 50 52 50 33 24 33 26 21 17 17 14
36 34 26 29 36 33 36 44 43 42 38 37 33 33 28 26 28 27 28 24 19 20 35 35 41 47 49 50 56 63 60 55 51 52 48 46 46 42 33 29 27 23 22 23
Wind_Direction_500mb
200 220 221 225 228 283 278 288 287 294 313 296 308 302 286 230 211 212 210 204 204 205 197 194 192 192 190 192 193 192 193 193 189 188 190 191 194 187 185 191 190 189 192 196
184 229 229 247 230 238 251 268 275 326 2 300 315 306 276 219 217 214 209 209 210 205 197 198 197 196 195 194 193 194 194 196 187 187 184 190 188 193 189 196 198 200 205 206
226 187 232 207 221 238 241 261 286 303 303 279 286 282 196 170 213 222 218 216 213 208 202 200 201 200 198 199 195 196 196 195 192 191 189 189 187 194 200 203 205 207 210 221
239 236 203 231 237 229 253 251 274 282 275 280 63 295 269 233 232 214 220 219 217 212 207 203 202 202 203 202 198 198 201 200 197 196 195 192 194 194 202 204 213 212 224 229
213 213 219 232 230 231 260 271 262 270 268 283 273 248 279 200 255 248 209 221 223 219 211 206 202 204 204 201 198 196 204 205 198 198 193 200 196 204 209 201 208 216 229 226
263 150 247 245 237 242 258 222 226 246 254 258 256 245 280 68 220 301 305 250 215 218 214 209 206 203 201 200 198 195 202 206 205 204 203 203 205 196 202 204 214 214 225 230
214 227 226 229 212 188 202 222 232 219 223 254 48 257 269 299 292 280 292 292 251 220 211 206 203 199 198 197 197 196 200 206 208 206 211 212 212 210 206 208 217 217 227 228
213 203 207 197 227 214 209 238 249 242 252 268 127 253 244 276 295 289 279 268 274 228 206 204 201 197 196 196 196 196 201 206 210 212 212 216 217 216 220 227 221 232 226 227
202 225 150 230 211 223 224 233 251 272 260 265 273 274 258 261 293 273 235 246 271 235 208 199 197 198 197 195 197 199 202 208 210 213 215 218 218 216 218 221 233 230 223 223
240 263 208 178 224 232 252 277 215 233 264 267 269 265 265 294 349 326 241 240 299 247 205 197 195 195 196 196 199 201 204 208 209 208 214 217 219 221 222 227 226 222 226 232
236 245 235 191 209 231 183 228 235 278 278 281 280 273 38 258 291 302 298 312 295 276 205 196 195 194 195 196 197 199 201 203 208 210 212 214 217 219 223 226 228 229 232 236
220 231 239 239 245 278 285 227 225 229 238 236 273 280 299 278 305 314 299 298 299 263 201 192 192 191 193 197 196 199 200 204 209 213 216 217 215 214 217 224 228 232 236 238
172 223 246 242 218 220 236 235 246 256 257 260 263 268 206 299 274 286 280 276 272 235 189 189 190 194 194 196 197 199 201 203 209 211 218 217 220 219 219 225 228 232 235 239
221 250 236 269 278 11 227 230 250 264 254 254 248 260 272 283 297 305 302 279 260 198 184 188 192 196 198 197 197 199 203 206 211 216 217 219 223 222 219 223 227 229 232 235
250 246 257 255 275 277 260 270 270 263 265 265 275 277 271 260 272 311 314 291 256 190 181 188 193 193 196 198 199 200 201 203 210 214 215 221 224 224 223 225 230 232 236 240
233 263 271 268 262 265 265 259 261 257 261 260 266 266 274 288 307 294 297 282 265 206 187 190 193 194 195 199 199 200 202 206 207 210 217 216 220 224 226 224 227 234 237 235
251 250 233 255 260 265 260 259 252 253 251 252 251 256 253 265 277 293 313 320 304 264 206 197 196 196 198 197 199 200 200 200 205 207 217 214 219 221 230 231 229 233 236 239
252 242 258 265 273 254 261 269 247 283 279 268 269 270 280 305 295 301 322 317 304 283 213 195 192 190 187 185 188 185 189 197 203 208 214 212 214 219 218 213 217 221 230 234
242 249 254 252 251 260 249 246 253 266 271 204 284 295 293 290 291 231 29 13 348 303 203 186 179 169 164 166 172 171 178 188 196 207 211 211 206 206 210 211 215 223 229 240
252 227 249 244 255 255 274 284 270 281 257 272 302 293 309 302 256 116 354 343 342 335 184 166 167 164 160 163 168 170 172 181 190 197 197 195 199 212 211 212 211 216 220 232
211 233 234 237 251 261 260 214 315 237 272 22 346 337 328 323 326 325 333 333 331 299 187 165 165 160 171 171 179 187 193 199 199 202 200 204 210 220 239 222 209 208 213 222
250 241 235 235 252 254 147 196 238 356 318 331 328 329 326 321 322 328 334 336 326 248 171 161 164 167 175 174 173 177 184 193 204 211 208 212 209 198 204 200 196 185 195 218
247 257 269 267 252 68 58 337 311 303 301 314 323 321 315 317 325 332 334 337 331 214 176 169 175 174 166 162 164 150 139 138 160 153 150 142 151 162 158 179 176 159 158 161
257 258 265 275 263 265 250 278 291 293 303 310 313 318 318 314 320 321 327 329 338 221 185 180 172 173 162 157 152 149 142 136 152 154 138 145 154 161 161 162 161 140 122 119
273 322 264 256 255 277 265 264 259 296 291 291 294 301 305 312 307 314 317 320 322 231 193 199 176 178 175 167 164 158 153 153 154 156 162 154 176 192 171 161 161 144 138 119
258 259 252 258 269 283 280 283 287 289 284 281 278 295 288 303 300 300 303 302 288 228 199 194 190 182 183 174 170 169 169 172 174 179 183 181 175 171 171 166 153 139 121 100
Wind_Speed_850mb
33 23 32 30 28 20 13 19 21 16 11 14 17 23 18 15 31 32 36 39 40 41 38 37 37 36 34 33 33 33 32 35 37 35 39 36 35 42 31 29 30 21 22 23
18 36 33 21 11 22 21 25 23 8 1 17 29 33 17 18 30 37 40 41 46 43 41 43 42 41 40 38 36 35 35 37 39 36 38 38 38 44 31 34 33 25 24 24
34 2 31 19 28 28 29 30 25 22 22 29 20 28 9 9 20 29 38 41 47 50 50 48 49 47 43 43 43 39 37 40 45 41 44 47 44 40 35 35 38 28 24 23
24 21 8 29 40 28 30 24 24 24 18 18 2 21 13 8 12 21 33 47 52 55 54 53 50 49 49 47 42 41 38 39 49 52 52 40 50 40 39 31 33 25 25 24
14 19 29 31 24 24 31 26 22 20 22 20 29 14 18 13 18 18 27 40 46 53 59 60 57 55 52 48 47 45 42 39 45 56 50 55 44 35 31 31 28 29 25 27
30 10 10 27 31 33 19 20 20 18 22 25 30 20 17 4 7 12 21 4 27 47 58 61 60 55 50 49 47 48 50 47 48 54 61 56 51 41 35 35 31 27 23 25
29 32 31 22 17 14 22 24 17 21 21 25 3 13 24 27 25 22 20 24 17 29 54 63 66 61 55 54 53 51 53 56 53 54 59 59 57 58 42 34 33 30 30 30
17 24 35 26 36 24 34 31 23 20 21 19 14 11 11 13 28 28 23 22 18 20 45 62 65 64 62 58 56 54 54 59 59 56 55 56 56 54 56 44 39 34 35 33
12 13 10 10 25 32 28 23 35 38 28 21 27 32 18 23 17 15 22 11 9 15 32 55 63 64 62 60 59 59 57 59 60 59 55 54 54 56 50 50 45 43 37 32
8 16 20 26 17 20 32 16 21 22 31 33 23 19 16 15 12 12 7 7 8 10 28 46 60 63 59 57 59 62 58 60 60 58 58 57 56 55 56 50 52 42 41 41
32 22 12 14 26 24 16 26 27 27 18 20 23 18 15 9 16 17 14 12 13 12 29 43 54 58 58 56 55 61 59 55 57 57 55 55 53 50 51 52 50 48 47 46
37 18 25 35 26 13 27 29 39 25 35 24 21 25 24 13 21 23 23 16 9 11 30 41 51 55 56 55 56 60 60 58 59 58 59 57 53 48 45 50 51 51 50 46
18 19 23 30 25 26 23 32 29 28 30 36 28 22 7 10 19 25 22 20 13 10 31 39 49 56 59 58 57 59 61 62 61 65 62 54 54 52 49 45 45 46 47 48
10 28 22 26 15 11 10 17 22 29 31 31 34 40 30 28 23 20 11 17 13 15 33 39 43 51 52 51 53 55 55 56 61 63 60 57 59 53 47 44 42 44 45 43
13 26 27 29 37 30 27 30 30 30 28 34 40 38 29 25 23 21 8 11 9 18 28 37 43 45 47 50 48 50 50 52 55 58 55 62 59 55 52 51 45 38 37 38
19 27 25 30 33 36 42 37 38 36 36 36 34 41 33 32 14 25 23 14 13 17 24 29 36 40 44 46 48 47 51 51 53 51 55 48 58 58 55 52 51 50 42 39
21 21 21 33 30 31 40 34 41 45 41 33 35 34 27 20 19 21 25 21 15 11 16 22 27 31 33 37 39 42 43 42 45 48 53 55 59 58 53 46 53 52 37 38
20 22 23 28 30 44 29 38 17 26 31 34 34 30 32 17 27 27 24 25 20 10 13 19 21 23 26 29 32 32 34 38 42 49 52 50 51 54 48 51 50 44 44 42
29 25 26 29 32 35 30 10 20 25 29 11 14 22 25 26 34 6 19 26 21 9 11 18 21 24 27 28 31 34 33 34 36 44 45 44 37 34 42 54 57 51 38 36
34 30 25 29 37 44 29 27 29 24 34 12 9 11 16 23 22 5 31 29 24 9 9 20 26 27 26 27 30 31 32 29 31 30 37 40 37 47 38 46 46 39 38 34
21 25 34 33 36 42 29 4 7 26 11 8 10 13 18 13 25 40 35 29 21 8 11 22 27 29 31 33 33 34 36 43 47 53 51 58 58 60 51 35 41 38 32 26
31 28 28 29 38 46 9 11 26 17 16 14 15 16 21 24 27 28 29 28 20 5 17 23 27 29 32 32 31 29 26 25 30 39 39 47 48 56 55 38 32 28 20 11
27 30 24 23 14 11 9 4 10 21 17 15 19 23 24 27 27 30 30 26 16 6 19 27 26 37 37 32 30 32 33 29 28 36 36 37 38 31 35 28 21 16 12 4
17 18 15 26 26 35 21 20 23 7 10 19 26 27 30 31 30 29 28 25 17 6 24 30 37 42 44 37 42 40 45 41 38 47 42 27 15 24 26 24 13 15 13 9
24 15 19 30 35 41 37 32 11 27 34 31 26 29 29 31 28 30 30 26 18 12 29 34 41 44 48 42 47 60 60 56 56 50 52 50 33 24 33 26 21 17 17 14
36 34 26 29 36 33 36 44 43 42 38 37 33 33 28 26 28 27 28 24 19 20 35 35 41 47 49 50 56 63 60 55 51 52 48 46 46 42 33 29 27 23 22 23
Wind_Direction_850mb
200 220 221 225 228 283 278 288 287 294 313 296 308 302 286 230 211 212 210 204 204 205 197 194 192 192 190 192 193 192 193 193 189 188 190 191 194 187 185 191 190 189 192 196
184 229 229 247 230 238 251 268 275 326 2 300 315 306 276 219 217 214 209 209 210 205 197 198 197 196 195 194 193 194 194 196 187 187 184 190 188 193 189 196 198 200 205 206
226 187 232 207 221 238 241 261 286 303 303 279 286 282 196 170 213 222 218 216 213 208 202 200 201 200 198 199 195 196 196 195 192 191 189 189 187 194 200 203 205 207 210 221
239 236 203 231 237 229 253 251 274 282 275 280 63 295 269 233 232 214 220 219 217 212 207 203 202 202 203 202 198 198 201 200 197 196 195 192 194 194 202 204 213 212 224 229
213 213 219 232 230 231 260 271 262 270 268 283 273 248 279 200 255 248 209 221 223 219 211 206 202 204 204 201 198 196 204 205 198 198 193 200 196 204 209 201 208 216 229 226
263 150 247 245 237 242 258 222 226 246 254 258 256 245 280 68 220 301 305 250 215 218 214 209 206 203 201 200 198 195 202 206 205 204 203 203 205 196 202 204 214 214 225 230
214 227 226 229 212 188 202 222 232 219 223 254 48 257 269 299 292 280 292 292 251 220 211 206 203 199 198 197 197 196 200 206 208 206 211 212 212 210 206 208 217 217 227 228
213 203 207 197 227 214 209 238 249 242 252 268 127 253 244 276 295 289 279 268 274 228 206 204 201 197 196 196 196 196 201 206 210 212 212 216 217 216 220 227 221 232 226 227
202 225 150 230 211 223 224 233 251 272 260 265 273 274 258 261 293 273 235 246 271 235 208 199 197 198 197 195 197 199 202 208 210 213 215 218 218 216 218 221 233 230 223 223
240 263 208 178 224 232 252 277 215 233 264 267 269 265 265 294 349 326 241 240 299 247 205 197 195 195 196 196 199 201 204 208 209 208 214 217 219 221 222 227 226 222 226 232
236 245 235 191 209 231 183 228 235 278 278 281 280 273 38 258 291 302 298 312 295 276 205 196 195 194 195 196 197 199 201 203 208 210 212 214 217 219 223 226 228 229 232 236
220 231 239 239 245 278 285 227 225 229 238 236 273 280 299 278 305 314 299 298 299 263 201 192 192 191 193 197 196 199 200 204 209 213 216 217 215 214 217 224 228 232 236 238
172 223 246 242 218 220 236 235 246 256 257 260 263 268 206 299 274 286 280 276 272 235 189 189 190 194 194 196 197 199 201 203 209 211 218 217 220 219 219 225 228 232 235 239
221 250 236 269 278 11 227 230 250 264 254 254 248 260 272 283 297 305 302 279 260 198 184 188 192 196 198 197 197 199 203 206 211 216 217 219 223 222 219 223 227 229 232 235
250 246 257 255 275 277 260 270 270 263 265 265 275 277 271 260 272 311 314 291 256 190 181 188 193 193 196 198 199 200 201 203 210 214 215 221 224 224 223 225 230 232 236 240
233 263 271 268 262 265 265 259 261 257 261 260 266 266 274 288 307 294 297 282 265 206 187 190 193 194 195 199 199 200 202 206 207 210 217 216 220 224 226 224 227 234 237 235
251 250 233 255 260 265 260 259 252 253 251 252 251 256 253 265 277 293 313 320 304 264 206 197 196 196 198 197 199 200 200 200 205 207 217 214 219 221 230 231 229 233 236 239
252 242 258 265 273 254 261 269 247 283 279 268 269 270 280 305 295 301 322 317 304 283 213 195 192 190 187 185 188 185 189 197 203 208 214 212 214 219 218 213 217 221 230 234
242 249 254 252 251 260 249 246 253 266 271 204 284 295 293 290 291 231 29 13 348 303 203 186 179 169 164 166 172 171 178 188 196 207 211 211 206 206 210 211 215 223 229 240
252 227 249 244 255 255 274 284 270 281 257 272 302 293 309 302 256 116 354 343 342 335 184 166 167 164 160 163 168 170 172 181 190 197 197 195 199 212 211 212 211 216 220 232
211 233 234 237 251 261 260 214 315 237 272 22 346 337 328 323 326 325 333 333 331 299 187 165 165 160 171 171 179 187 193 199 199 202 200 204 210 220 239 222 209 208 213 222
250 241 235 235 252 254 147 196 238 356 318 331 328 329 326 321 322 328 334 336 326 248 171 161 164 167 175 174 173 177 184 193 204 211 208 212 209 198 204 200 196 185 195 218
247 257 269 267 252 68 58 337 311 303 301 314 323 321 315 317 325 332 334 337 331 214 176 169 175 174 166 162 164 150 139 138 160 153 150 142 151 162 158 179 176 159 158 161
257 258 265 275 263 265 250 278 291 293 303 310 313 318 318 314 320 321 327 329 338 221 185 180 172 173 162 157 152 149 142 136 152 154 138 145 154 161 161 162 161 140 122 119
273 322 264 256 255 277 265 264 259 296 291 291 294 301 305 312 307 314 317 320 322 231 193 199 176 178 175 167 164 158 153 153 154 156 162 154 176 192 171 161 161 144 138 119
258 259 252 258 269 283 280 283 287 289 284 281 278 295 288 303 300 300 303 302 288 228 199 194 190 182 183 174 170 169 169 172 174 179 183 181 175 171 171 166 153 139 121 100